Preview of NWS' New Version of Forecast
This preview is not operational and should not be used for support decisions.
Latest weather observations around

Frenchville, Northern Aroostook Regional Airport (KFVE)

Using English Units (Switch to International System of Units)
Date/ Time (EST) Wind (mph) Vis. (mi) Weather Sky Cond. Temp (°F) Rel. Humidity Wind Chill (°F) Heat Index (°F) Pressure Precip. (in)
Air Dwpt 6 hour Altimeter (inHg) Sea level (inHg) 1 hr 3 hr 6 hr
Max Min
Feb 25 18:16   1.25 Light Snow and Fog/Mist FEW007 OVC014 19 17     92%     30.03   0    
Feb 25 18:10   1 Light Snow and Fog/Mist FEW007 OVC016 19 17     92%     30.03   0    
Feb 25 18:05   0.75 Light Snow and Fog/Mist VV015 19 17     92%     30.03   0    
Feb 25 17:53   1.25 Light Snow and Fog/Mist OVC019 19 16     88%     30.04 30.09 0    
Feb 25 17:37   1.25 Light Snow and Fog/Mist OVC022 19 16     88%     30.03   0    
Feb 25 17:35   1.75 Light Snow and Fog/Mist FEW014 OVC024 19 16     88%     30.03   0    
Feb 25 17:26 SSE 15 4 Light Snow and Fog/Mist OVC028 18 16     92% 4   30.05   0    
Feb 25 17:16 SE 17 2 Light Snow and Fog/Mist OVC027 18 16     92% 3   30.05   0    
Feb 25 16:53 SE 16 1.25 Light Snow and Fog/Mist OVC024 18 15     88% 3   30.06 30.11 0    
Feb 25 16:32 SSE 14 1 Light Snow and Fog/Mist OVC024 18 14     84% 4   30.07   0    
Feb 25 16:25 SSE 14 1.5 Light Snow and Fog/Mist OVC024 18 14     84% 4   30.08   0    
Feb 25 16:17 SE 15 1.25 Light Snow and Fog/Mist OVC028 18 14     84% 4   30.07   0    
Feb 25 16:12 SE 16 1.5 Light Snow and Fog/Mist OVC030 18 14     84% 3   30.08   0    
Feb 25 15:53 SSE 14 2.5 Light Snow BKN036 OVC046 18 13     80% 4   30.09 30.15 0 0  
Feb 25 15:36 SSE 18 1.75 Light Snow BKN034 BKN042 OVC049 18 12     77% 2   30.1   0    
Feb 25 14:53 SSE 15 10 Cloudy FEW060 BKN090 OVC110 19 10     67% 5   30.11 30.16      
Feb 25 13:53 SSE 16 10 Partly Cloudy SCT110 18 8     65% 3   30.15 30.2      
Feb 25 12:53 SSE 15 10 Clear CLR 17 6     61% 2   30.18 30.24      
Feb 25 11:53 SSE 16 10 Clear CLR 14 5     67% -2   30.23 30.29      
Feb 25 10:53 SE 10 10 Clear CLR 13 2     61% 0   30.27 30.33      
Feb 25 09:53 E 7 10 Clear CLR 9 1     70% -2   30.3 30.35      
Feb 25 08:53 ESE 9 10 Clear CLR 9 0     66% -4   30.33 30.39      
Feb 25 07:53 ESE 5 10 Clear CLR 6 0     75% -3   30.36 30.42      
Feb 25 06:53 E 6 10 Clear CLR 8 0     69% -2   30.34 30.39      
Feb 25 05:53 ENE 6 10 Clear CLR 8 0     69% -2   30.32 30.38      
Feb 25 04:53 Calm 10 Clear CLR 9 0     66%     30.35 30.4      
Feb 25 03:53 NE 7 10 Clear CLR 8 0     69% -3   30.35 30.4      
Feb 25 02:53 NE 5 10 Clear CLR 10 2     69% 2   30.35 30.4      
Feb 25 01:53 Calm 10 Clear CLR 10 1     66%     30.35 30.4      
Feb 25 00:53 NNW 13 10 Clear CLR 11 2     66% -4   30.31 30.35      
Feb 24 23:53 NNW 8 10 Clear CLR 13 2     61% 2   30.3 30.35      
Feb 24 22:53 NNW 10 10 Clear CLR 15 2     55% 3   30.28 30.33      
Feb 24 21:53 NW 13 10 Clear CLR 17 0     46% 4   30.25 30.3      
Feb 24 20:53 NW 14 10 Clear CLR 19 -1     41% 6   30.23 30.27      
Feb 24 19:53 NW 13 10 Clear CLR 20 -1     39% 7   30.17 30.2      
Feb 24 18:53 NW 15 10 Clear CLR 22 3     43% 9   30.13 30.17      
Feb 24 17:53 NNW 18 10 Clear CLR 24 5     43% 10   30.1 30.13      
Feb 24 16:53 NNW 17 10 Clear CLR 27 8     44% 14   30.06 30.09      
Feb 24 15:53 WNW 20 10 Mostly Clear and Windy FEW046 30 11     44% 17   30.02 30.05      
Feb 24 14:53 NNW 20 10 Mostly Cloudy and Windy BKN048 BKN055 31 14     49% 19   29.99 30.03      
Feb 24 13:53 WNW 20 10 Cloudy and Windy OVC043 31 16     53% 19   29.95 29.98      
Feb 24 12:53 WNW 18 10 Cloudy OVC041 29 15     56% 16   29.93 29.97      
Feb 24 11:53 WNW 20 10 Cloudy and Windy OVC034 28 15     58% 15   29.91 29.95      
Feb 24 11:12 NW 17 10 Cloudy OVC031 28 17     63% 16   29.9        
Feb 24 10:53 NW 20 10 Cloudy and Windy OVC028 28 16     60% 15   29.9 29.94      
Feb 24 09:53 NNW 21 10 Mostly Cloudy and Windy BKN029 27 17     66% 13   29.88 29.92      
Feb 24 08:53 NW 18 10 Mostly Cloudy SCT025 BKN030 28 20     71% 15   29.84 29.88      
Feb 24 07:53 NNW 16 10 Cloudy FEW020 BKN027 OVC037 29 24     82% 17   29.81 29.84      
Feb 24 07:27 NW 14 10 Cloudy SCT022 BKN026 OVC045 29 24     82% 18   29.79        
Feb 24 06:53 NNW 8 10 Cloudy BKN044 OVC050 26 23     88% 18   29.77 29.81      
Feb 24 05:53 W 7 10 Partly Cloudy FEW045 SCT060 25 23     92% 17   29.74 29.78      
Feb 24 05:03 SW 8 10 Cloudy SCT023 OVC055 24 23     96% 15   29.73        
Feb 24 04:53 SW 7 10 Cloudy SCT021 BKN027 OVC055 25 23     92% 17   29.72 29.76      
Feb 24 04:38 SSW 5 10 Cloudy SCT009 BKN021 OVC028 24 23     96% 18   29.73        
Feb 24 04:03 S 3 10 Cloudy OVC009 23 22     96% 19   29.72        
Feb 24 03:53 S 5 10 Cloudy OVC010 23 22     96% 17   29.72 29.75      
Feb 24 03:34 S 5 10 Cloudy OVC010 23 22     96% 17   29.72        
Feb 24 02:53 SSW 5 10 Cloudy OVC008 23 21     92% 17   29.73 29.76      
Feb 24 02:21 SSE 3 8 Cloudy BKN006 OVC010 22 21     96% 17   29.73        
Feb 24 01:53 S 5 7 Cloudy FEW006 OVC014 22 21     96% 16   29.74 29.78      
Feb 24 01:49 S 5 6 Fog/Mist SCT006 OVC014 21 19     93% 15   29.74        
Feb 24 01:03 S 8 9 Cloudy SCT006 OVC017 22 20     92% 13   29.77        
Feb 24 00:53 S 7 6 Fog/Mist BKN005 OVC010 22 20     92% 13   29.77 29.81     0
Feb 24 00:45 S 7 6 Fog/Mist BKN005 BKN011 OVC018 22 20     92% 13   29.77        
Feb 23 23:53 S 10 8 Cloudy OVC006 21 19     92% 10   29.8 29.85 0    
Feb 23 23:03 S 10 4 Light Snow and Fog/Mist BKN007 BKN017 OVC034 20 19     96% 9   29.84   0    
Feb 23 22:53 S 9 2.5 Light Snow and Fog/Mist BKN006 BKN019 OVC034 20 19     96% 9   29.86 29.9 0    
Feb 23 22:34 S 13 2 Light Snow and Fog/Mist SCT006 OVC020 20 19     96% 7   29.87   0    
Feb 23 22:03 S 14 1.5 Light Snow and Fog/Mist FEW007 BKN016 OVC036 20 18     92% 7   29.9   0    
Feb 23 21:53 S 14 1.25 Light Snow and Fog/Mist BKN012 OVC037 20 18     92% 7   29.92 29.97 0 0  
Feb 23 21:22 S 14 1.25 Light Snow and Fog/Mist SCT009 BKN013 OVC018 20 18     92% 7   29.95   0    
Feb 23 21:19 S 15 1.75 Light Snow and Fog/Mist BKN011 OVC016 20 18     92% 6   29.95   0    
Feb 23 21:17 S 17 2.5 Light Snow and Fog/Mist BKN008 OVC013 20 18     92% 5   29.95   0    
Feb 23 21:14 S 14 4 Light Snow and Fog/Mist SCT008 BKN013 OVC018 20 18     92% 7   29.96   0    
Feb 23 21:05 S 11 2 Light Snow and Fog/Mist FEW006 BKN012 OVC018 20 18     92% 8   29.97   0    
Feb 23 21:01 S 14 1.5 Light Snow and Fog/Mist FEW008 BKN012 OVC018 20 18     92% 7   29.97   0    
Feb 23 20:53 S 16 1 Light Snow and Fog/Mist VV012 20 18     92% 6   29.97 30.03 0    
Feb 23 20:40 S 16 1 Light Snow and Fog/Mist VV012 20 18     92% 6   29.98   0    
Feb 23 20:33 S 13 1.25 Light Snow and Fog/Mist FEW010 OVC016 20 17     88% 7   29.98   0    
Feb 23 20:24 S 15 1.5 Light Snow and Fog/Mist OVC016 20 17     88% 6   30   0    
Feb 23 20:15 S 15 2.5 Light Snow and Fog/Mist OVC020 20 16     84% 6   30.01   0    
Feb 23 19:53 S 13 3 Light Snow OVC023 21 15     77% 9   30.03 30.09 0    
Feb 23 19:44 S 14 4 Light Snow OVC027 21 14     74% 8   30.03   0    
Feb 23 18:53 S 15 10 Cloudy BKN050 OVC060 23 8     52% 10   30.08 30.14      
Feb 23 17:53 SSE 14 10 Cloudy BKN065 OVC085 21 10     62% 8   30.14 30.19      
Feb 23 16:53 SE 13 10 Cloudy BKN080 OVC100 22 9     57% 10   30.22 30.28      
Feb 23 15:53 SE 13 10 Cloudy BKN080 OVC095 23 10     57% 11   30.28 30.34      
Feb 23 14:53 SSE 14 10 Mostly Cloudy BKN100 24 10     55% 12   30.32 30.38      
Feb 23 13:53 SSE 13 10 Mostly Clear FEW120 24 9     52% 12   30.4 30.45      
Feb 23 12:53 SSE 10 10 Clear CLR 22 9     57% 11   30.44 30.49      
Feb 23 11:53 SSE 8 10 Clear CLR 20 7     57% 10   30.51 30.56      
Feb 23 10:53 Calm 10 Clear CLR 16 5     61%     30.56 30.62      
Feb 23 09:53 SSE 5 10 Clear CLR 9 3     76% 0   30.6 30.66      
Feb 23 08:53 Calm 10 Clear CLR 8 3     79%     30.6 30.66      
Feb 23 07:53 Calm 10 Clear CLR 3 0     87%     30.62 30.69      
Feb 23 06:53 Calm 10 Clear CLR 2 -1     87%     30.62 30.69      
Feb 23 05:53 W 6 10 Clear CLR 4 0     83% -7   30.63 30.7      
Feb 23 04:53 W 3 10 Clear CLR 4 0     83% -3   30.63 30.69      
Feb 23 03:53 WNW 3 10 Clear CLR 2 0     91% -5   30.63 30.69      
Feb 23 02:53 W 3 10 Clear CLR 8 3     79% 2   30.64 30.69      
Feb 23 01:53 NW 5 10 Clear CLR 9 3     76% 0   30.64 30.7      
Feb 23 00:53 Calm 10 Clear CLR 10 3     73%     30.65 30.7      
Feb 22 23:53 NW 8 10 Clear CLR 10 3     73% -2   30.65 30.71      
Feb 22 22:53 NNW 7 10 Clear CLR 10 3     73% -1   30.62 30.68      
Feb 22 21:53 NNW 5 10 Clear CLR 12 1     61% 4   30.62 30.68      
Feb 22 20:53 NW 3 10 Clear CLR 13 1     58% 7   30.61 30.67      
Feb 22 19:53 NW 7 10 Clear CLR 14 0     53% 4   30.59 30.66      
Feb 22 18:53 NW 7 10 Clear CLR 14 0     53% 4   30.58 30.65      
Jun 10 18:53 WSW 7 10 Clear CLR 68 31     25%     29.82 29.81      
Jun 10 09:53   10 Clear CLR 56 37     49%     29.87 29.86